Time,TemperatureF,DewpointF,PressureIn,WindDirection,WindDirectionDegrees,WindSpeedMPH,WindSpeedGustMPH,Humidity,HourlyPrecipIn,Conditions,Clouds,dailyrainin,SoftwareType,DateUTC
2013-07-18 00:00:00,76.1,71.0,29.95,NNE,12,0.0,0.0,84,0.00,,,0.00,weatherlink.com 1.10,2013-07-18 04:00:00,
2013-07-18 00:15:00,76.0,71.0,29.95,NNE,12,0.0,0.0,84,0.00,,,0.00,weatherlink.com 1.10,2013-07-18 04:15:00,
2013-07-18 00:30:00,75.1,71.0,29.95,NNE,12,0.0,0.0,86,0.00,,,0.00,weatherlink.com 1.10,2013-07-18 04:30:00,
2013-07-18 00:45:00,74.1,70.0,29.95,NNE,12,0.0,0.0,88,0.00,,,0.00,weatherlink.com 1.10,2013-07-18 04:45:00,
2013-07-18 01:00:00,73.7,70.0,29.95,NNE,12,0.0,0.0,89,0.00,,,0.00,weatherlink.com 1.10,2013-07-18 05:00:00,
2013-07-18 01:15:00,73.3,70.0,29.95,NNE,12,0.0,0.0,90,0.00,,,0.00,weatherlink.com 1.10,2013-07-18 05:15:00,
2013-07-18 01:30:00,73.5,70.0,29.94,NNE,12,0.0,0.0,89,0.00,,,0.00,weatherlink.com 1.10,2013-07-18 05:30:00,
2013-07-18 01:45:00,73.7,70.0,29.94,NNE,12,0.0,0.0,89,0.00,,,0.00,weatherlink.com 1.10,2013-07-18 05:45:00,
2013-07-18 02:00:00,73.9,71.0,29.94,NNE,12,0.0,0.0,89,0.00,,,0.00,weatherlink.com 1.10,2013-07-18 06:00:00,
2013-07-18 02:15:00,73.8,70.0,29.93,NNE,12,0.0,0.0,89,0.00,,,0.00,weatherlink.com 1.10,2013-07-18 06:15:00,
2013-07-18 02:30:00,73.2,70.0,29.93,NNE,12,0.0,0.0,90,0.00,,,0.00,weatherlink.com 1.10,2013-07-18 06:30:00,
2013-07-18 02:45:00,72.5,70.0,29.92,NNE,12,0.0,0.0,92,0.00,,,0.00,weatherlink.com 1.10,2013-07-18 06:45:00,
2013-07-18 03:00:00,71.7,70.0,29.92,NNE,12,0.0,0.0,93,0.00,,,0.00,weatherlink.com 1.10,2013-07-18 07:00:00,
2013-07-18 03:15:00,71.4,70.0,29.92,NNE,12,0.0,0.0,95,0.00,,,0.00,weatherlink.com 1.10,2013-07-18 07:15:00,
2013-07-18 03:30:00,71.4,70.0,29.92,NNE,12,0.0,0.0,95,0.00,,,0.00,weatherlink.com 1.10,2013-07-18 07:30:00,
2013-07-18 03:45:00,71.4,70.0,29.92,NNE,12,0.0,0.0,95,0.00,,,0.00,weatherlink.com 1.10,2013-07-18 07:45:00,
2013-07-18 04:00:00,71.5,70.0,29.92,NNE,12,0.0,0.0,95,0.00,,,0.00,weatherlink.com 1.10,2013-07-18 08:00:00,
2013-07-18 04:15:00,71.5,70.0,29.92,NNE,12,0.0,0.0,95,0.00,,,0.00,weatherlink.com 1.10,2013-07-18 08:15:00,
2013-07-18 04:30:00,72.2,70.0,29.92,NNE,12,0.0,0.0,94,0.00,,,0.00,weatherlink.com 1.10,2013-07-18 08:30:00,
2013-07-18 04:45:00,73.1,71.0,29.93,NNE,12,0.0,0.0,92,0.00,,,0.00,weatherlink.com 1.10,2013-07-18 08:45:00,
2013-07-18 05:00:00,73.7,71.0,29.93,NNE,12,0.0,0.0,90,0.00,,,0.00,weatherlink.com 1.10,2013-07-18 09:00:00,
2013-07-18 05:15:00,73.6,71.0,29.93,NNE,12,0.0,0.0,91,0.00,,,0.00,weatherlink.com 1.10,2013-07-18 09:15:00,
2013-07-18 05:30:00,73.7,71.0,29.93,NNE,12,0.0,0.0,91,0.00,,,0.00,weatherlink.com 1.10,2013-07-18 09:30:00,
2013-07-18 05:45:00,73.6,71.0,29.94,NNE,12,0.0,0.0,91,0.00,,,0.00,weatherlink.com 1.10,2013-07-18 09:45:00,
2013-07-18 06:00:00,73.6,71.0,29.94,North,11,0.0,0.0,90,0.00,,,0.00,weatherlink.com 1.10,2013-07-18 10:00:00,
2013-07-18 06:15:00,73.7,71.0,29.95,North,11,0.0,0.0,90,0.00,,,0.00,weatherlink.com 1.10,2013-07-18 10:15:00,
2013-07-18 06:30:00,73.8,71.0,29.95,NNE,13,0.0,1.0,90,0.00,,,0.00,weatherlink.com 1.10,2013-07-18 10:30:00,
2013-07-18 06:45:00,74.1,71.0,29.95,NNE,12,0.0,1.0,89,0.00,,,0.00,weatherlink.com 1.10,2013-07-18 10:45:00,
2013-07-18 07:00:00,74.4,71.0,29.96,NNE,22,0.0,1.0,89,0.00,,,0.00,weatherlink.com 1.10,2013-07-18 11:00:00,
2013-07-18 07:15:00,74.7,71.0,29.96,NNE,20,0.0,1.0,88,0.00,,,0.00,weatherlink.com 1.10,2013-07-18 11:15:00,
2013-07-18 07:30:00,74.9,71.0,29.96,North,357,0.0,1.0,88,0.00,,,0.00,weatherlink.com 1.10,2013-07-18 11:30:00,
2013-07-18 07:45:00,75.3,71.0,29.96,ENE,63,0.0,1.0,87,0.00,,,0.00,weatherlink.com 1.10,2013-07-18 11:45:00,
2013-07-18 08:00:00,75.7,71.0,29.97,ENE,58,0.0,1.0,86,0.00,,,0.00,weatherlink.com 1.10,2013-07-18 12:00:00,
2013-07-18 08:15:00,76.2,71.0,29.97,West,262,1.0,2.0,85,0.00,,,0.00,weatherlink.com 1.10,2013-07-18 12:15:00,
2013-07-18 08:30:00,76.6,71.0,29.97,West,281,0.0,1.0,83,0.00,,,0.00,weatherlink.com 1.10,2013-07-18 12:30:00,
2013-07-18 08:45:00,77.2,71.0,29.97,NNE,25,0.0,2.0,81,0.00,,,0.00,weatherlink.com 1.10,2013-07-18 12:45:00,
2013-07-18 09:00:00,77.8,71.0,29.97,East,99,0.0,1.0,80,0.00,,,0.00,weatherlink.com 1.10,2013-07-18 13:00:00,
2013-07-18 09:15:00,78.5,71.0,29.97,WNW,300,0.0,2.0,78,0.00,,,0.00,weatherlink.com 1.10,2013-07-18 13:15:00,
2013-07-18 09:31:00,78.8,71.0,29.97,North,358,1.0,1.0,78,0.00,,,0.00,weatherlink.com 1.10,2013-07-18 13:31:00,
2013-07-18 09:46:00,79.4,71.0,29.97,NNE,27,0.0,1.0,76,0.00,,,0.00,weatherlink.com 1.10,2013-07-18 13:46:00,
2013-07-18 10:01:00,80.4,72.0,29.98,ENE,65,0.0,1.0,75,0.00,,,0.00,weatherlink.com 1.10,2013-07-18 14:01:00,
2013-07-18 10:16:00,81.5,72.0,29.98,SSE,148,0.0,1.0,73,0.00,,,0.00,weatherlink.com 1.10,2013-07-18 14:16:00,
2013-07-18 10:31:00,82.3,71.0,29.97,SE,129,1.0,1.0,69,0.00,,,0.00,weatherlink.com 1.10,2013-07-18 14:31:00,
2013-07-18 10:46:00,83.2,72.0,29.97,WSW,245,1.0,1.0,70,0.00,,,0.00,weatherlink.com 1.10,2013-07-18 14:46:00,
2013-07-18 11:01:00,83.8,72.0,29.97,West,264,1.0,2.0,67,0.00,,,0.00,weatherlink.com 1.10,2013-07-18 15:01:00,
2013-07-18 11:16:00,83.7,72.0,29.97,ESE,105,0.0,1.0,68,0.00,,,0.00,weatherlink.com 1.10,2013-07-18 15:16:00,
2013-07-18 11:31:00,84.1,73.0,29.96,NW,316,0.0,3.0,70,0.00,,,0.00,weatherlink.com 1.10,2013-07-18 15:31:00,
2013-07-18 11:46:00,86.1,73.0,29.96,West,267,0.0,2.0,64,0.00,,,0.00,weatherlink.com 1.10,2013-07-18 15:46:00,
2013-07-18 12:01:00,86.2,73.0,29.97,North,1,0.0,1.0,64,0.00,,,0.00,weatherlink.com 1.10,2013-07-18 16:01:00,
2013-07-18 12:17:00,87.3,73.0,29.96,WSW,246,1.0,4.0,63,0.00,,,0.00,weatherlink.com 1.10,2013-07-18 16:17:00,
2013-07-18 12:31:00,87.9,73.0,29.96,SSE,159,0.0,2.0,62,0.00,,,0.00,weatherlink.com 1.10,2013-07-18 16:31:00,
2013-07-18 12:46:00,88.2,74.0,29.95,SE,126,1.0,2.0,62,0.00,,,0.00,weatherlink.com 1.10,2013-07-18 16:46:00,
2013-07-18 13:01:00,88.7,74.0,29.95,SSE,157,0.0,1.0,63,0.00,,,0.00,weatherlink.com 1.10,2013-07-18 17:01:00,
2013-07-18 13:16:00,89.5,74.0,29.95,SW,236,1.0,3.0,60,0.00,,,0.00,weatherlink.com 1.10,2013-07-18 17:16:00,
2013-07-18 13:31:00,88.6,73.0,29.94,ESE,116,0.0,4.0,61,0.00,,,0.00,weatherlink.com 1.10,2013-07-18 17:31:00,
2013-07-18 13:46:00,89.9,73.0,29.94,South,180,0.0,3.0,58,0.00,,,0.00,weatherlink.com 1.10,2013-07-18 17:46:00,
2013-07-18 14:01:00,90.2,73.0,29.94,East,84,2.0,3.0,58,0.00,,,0.00,weatherlink.com 1.10,2013-07-18 18:01:00,
2013-07-18 14:16:00,90.8,74.0,29.93,West,259,0.0,4.0,59,0.00,,,0.00,weatherlink.com 1.10,2013-07-18 18:16:00,
2013-07-18 14:31:00,90.4,75.0,29.93,SSE,148,1.0,4.0,60,0.00,,,0.00,weatherlink.com 1.10,2013-07-18 18:31:00,
2013-07-18 14:46:00,90.9,74.0,29.92,WSW,248,0.0,4.0,58,0.00,,,0.00,weatherlink.com 1.10,2013-07-18 18:46:00,
2013-07-18 15:01:00,91.1,75.0,29.92,SSE,162,0.0,2.0,59,0.00,,,0.00,weatherlink.com 1.10,2013-07-18 19:01:00,
2013-07-18 15:16:00,90.0,76.0,29.91,South,178,0.0,0.0,64,0.00,,,0.00,weatherlink.com 1.10,2013-07-18 19:16:00,
2013-07-18 15:31:00,85.7,77.0,29.90,ESE,115,1.0,1.0,74,0.00,,,0.00,weatherlink.com 1.10,2013-07-18 19:31:00,
2013-07-18 15:46:00,81.0,72.0,29.91,East,83,2.0,3.0,74,0.00,,,0.00,weatherlink.com 1.10,2013-07-18 19:46:00,
2013-07-18 16:01:00,79.0,72.0,29.90,ESE,102,1.0,1.0,78,0.00,,,0.00,weatherlink.com 1.10,2013-07-18 20:01:00,
2013-07-18 16:16:00,78.3,71.0,29.91,ENE,68,0.0,1.0,78,0.00,,,0.00,weatherlink.com 1.10,2013-07-18 20:16:00,
2013-07-18 16:31:00,78.0,71.0,29.91,ENE,68,0.0,0.0,78,0.00,,,0.00,weatherlink.com 1.10,2013-07-18 20:31:00,
2013-07-18 16:46:00,77.3,71.0,29.91,SE,140,1.0,1.0,80,0.00,,,0.00,weatherlink.com 1.10,2013-07-18 20:46:00,
2013-07-18 17:01:00,76.3,70.0,29.91,SSE,153,0.0,2.0,82,0.00,,,0.00,weatherlink.com 1.10,2013-07-18 21:01:00,
2013-07-18 17:16:00,75.5,70.0,29.92,SSE,167,0.0,1.0,84,0.00,,,0.00,weatherlink.com 1.10,2013-07-18 21:16:00,
2013-07-18 17:31:00,75.0,71.0,29.91,SSE,167,0.0,1.0,87,0.00,,,0.00,weatherlink.com 1.10,2013-07-18 21:31:00,
2013-07-18 17:47:00,74.7,70.0,29.90,South,174,0.0,1.0,86,0.00,,,0.00,weatherlink.com 1.10,2013-07-18 21:47:00,
2013-07-18 18:01:00,74.0,71.0,29.90,SE,129,0.0,1.0,89,0.00,,,0.00,weatherlink.com 1.10,2013-07-18 22:01:00,
2013-07-18 18:16:00,73.6,71.0,29.91,SE,127,1.0,1.0,90,0.00,,,0.00,weatherlink.com 1.10,2013-07-18 22:16:00,
2013-07-18 18:31:00,72.9,71.0,29.91,NNW,342,0.0,1.0,92,0.00,,,0.00,weatherlink.com 1.10,2013-07-18 22:31:00,
2013-07-18 18:46:00,72.2,71.0,29.93,NW,304,0.0,1.0,95,0.05,,,0.05,weatherlink.com 1.10,2013-07-18 22:46:00,
2013-07-18 19:01:00,71.9,71.0,29.96,West,274,0.0,1.0,98,0.38,,,0.04,weatherlink.com 1.10,2013-07-18 23:01:00,
2013-07-18 19:16:00,69.7,69.0,29.95,SE,142,0.0,2.0,96,1.07,,,0.73,weatherlink.com 1.10,2013-07-18 23:16:00,
2013-07-18 19:31:00,69.3,69.0,29.93,SE,146,0.0,1.0,99,1.19,,,0.85,weatherlink.com 1.10,2013-07-18 23:31:00,
2013-07-18 19:46:00,69.5,69.0,29.93,SW,235,0.0,0.0,99,1.13,,,0.85,weatherlink.com 1.10,2013-07-18 23:46:00,
2013-07-18 20:02:00,69.7,70.0,29.92,SW,235,0.0,0.0,100,0.75,,,0.85,weatherlink.com 1.10,2013-07-19 00:02:00,
2013-07-18 20:17:00,69.8,70.0,29.91,SW,234,0.0,0.0,100,0.08,,,0.85,weatherlink.com 1.10,2013-07-19 00:17:00,
2013-07-18 20:32:00,69.9,70.0,29.91,SW,236,0.0,0.0,100,0.00,,,0.85,weatherlink.com 1.10,2013-07-19 00:32:00,
2013-07-18 20:47:00,70.0,70.0,29.93,SW,236,0.0,0.0,100,0.00,,,0.85,weatherlink.com 1.10,2013-07-19 00:47:00,
2013-07-18 21:02:00,70.1,70.0,29.95,NW,322,0.0,2.0,100,0.00,,,0.85,weatherlink.com 1.10,2013-07-19 01:02:00,
2013-07-18 21:17:00,70.7,71.0,29.96,NNW,329,1.0,2.0,100,0.00,,,0.85,weatherlink.com 1.10,2013-07-19 01:17:00,
2013-07-18 21:32:00,70.9,71.0,29.94,SSW,203,0.0,1.0,100,0.08,,,0.93,weatherlink.com 1.10,2013-07-19 01:32:00,
2013-07-18 21:47:00,70.8,71.0,29.92,NNE,19,0.0,1.0,100,0.16,,,1.01,weatherlink.com 1.10,2013-07-19 01:47:00,
2013-07-18 22:02:00,70.6,71.0,29.92,NNE,19,0.0,0.0,100,0.16,,,1.01,weatherlink.com 1.10,2013-07-19 02:02:00,
2013-07-18 22:17:00,70.5,71.0,29.91,SW,229,0.0,1.0,100,0.15,,,1.01,weatherlink.com 1.10,2013-07-19 02:17:00,
2013-07-18 22:32:00,70.6,71.0,29.91,SW,215,0.0,0.0,100,0.08,,,1.01,weatherlink.com 1.10,2013-07-19 02:32:00,
2013-07-18 22:47:00,70.6,71.0,29.91,SW,215,0.0,0.0,100,0.00,,,1.01,weatherlink.com 1.10,2013-07-19 02:47:00,
2013-07-18 23:02:00,70.6,71.0,29.91,SW,215,0.0,0.0,100,0.00,,,1.01,weatherlink.com 1.10,2013-07-19 03:02:00,
2013-07-18 23:17:00,70.7,71.0,29.91,SW,215,0.0,1.0,100,0.00,,,1.01,weatherlink.com 1.10,2013-07-19 03:17:00,
2013-07-18 23:32:00,70.6,71.0,29.90,East,99,0.0,1.0,100,0.00,,,1.01,weatherlink.com 1.10,2013-07-19 03:32:00,
2013-07-18 23:47:00,70.7,71.0,29.90,East,99,0.0,1.0,100,0.00,,,1.01,weatherlink.com 1.10,2013-07-19 03:47:00,